www.pogodaiklimat.ru

Погода и климат >> Архив погоды >> Россия >> Нижегородская область >> Дальнее Константиново


ПОГОДА в Дальнем Константиново

  • Прогноз погоды в Дальнем Константиново
  • Монитор погоды в Дальнем Константиново

АРХИВ ПОГОДЫ в Дальнем Константиново

Время (UTC), дата Ветер
(напр.,м/с)
 
Видим.   Явления Облачность Т
(С)
Тd
(С)
f
(%)
Тe
(С)
Тes
(С)
Комфортность P
(гПа)
Po
(гПа)
Тmin
(С)
Tmax
(С)
R
(мм)
R24
(мм)
S
(см)
18 14.05 С 1-1
{6}
10 км в посл. час гроза 10/10 600 м
[Cb cap]
+20.0 +12.9 64 +23 +23 комфорт 1014.2 998.7
21 14.05 ЮЗ 1-1
{3}
4000 м 6/0
[Ac trans]
+15.1 +13.8 92 +16 +16 1014.0 998.1
00 15.05 Ю 1-2
{3}
4000 м 6/0
[Ac trans]
+13.0 +12.4 96 +13 +13 1014.1 998.1
03 15.05 штиль 0
{3}
10 км 4/0
[Ac cuf]
+15.0 +13.2 89 +15 +16 1014.3 998.4 +12.1
06 15.05 С 2-4
{6}
10 км ясно +21.5 +15.7 70 +25 +34 комфорт 1014.1 998.7
09 15.05 СВ 2-4
{4}
10 км 3/3 600 м
[Cu med, cong]
+25.4 +14.3 50 +28 +38 жарко 1013.9 998.7
12 15.05 С 3-6
{8}
10 км гроза без осадков 8/8 600 м
[Cb cap]
+24.3 +15.1 56 +27 +29 жарко 1013.4 998.1
15 15.05 З 4-6
{11}
10 км гроза, ливневой дождь 10/10 600 м
[Cb cap]
+16.6 +13.6 82 +16 +16 1015.0 999.2 +26.5 9
18 15.05 ЮЗ 1-1
{6}
10 км слаб. ливневой дождь {гроза} 10/10 600 м
[Cb cap]
+15.3 +14.8 97 +16 +16 1015.2 999.4
21 15.05 штиль 0
{2}
4000 м {ливн. осадки} 10/10 1000 м
[Sc]
+14.8 +14.3 97 +14 +14 1015.2 999.3
00 16.05 СЗ 2-3
{3}
4000 м {ливн. осадки} 10/10 1000 м
[Sc]
+14.9 +14.4 97 +15 +15 1015.0 999.1
03 16.05 С 3-5
{6}
10 км в посл. час ливневой дождь 10/10 600 м
[Cb cap]
+14.7 +14.0 96 +14 +14 1015.2 999.3 +14.4 13
06 16.05 СЗ 4-8
{8}
10 км {ливн. осадки} 10/10 600 м
[Sc]
+14.2 +13.1 93 +13 +13 1016.2 1000.3 +14.1
09 16.05 СЗ 4-8
{8}
10 км 10/10 600 м
[Sc]
+16.0 +11.8 76 +15 +15 1017.3 1001.5
12 16.05 СЗ 4-9
{9}
10 км 6/6 1000 м
[Cu med, cong]
+18.3 +9.2 55 +18 +21 1017.6 1001.9
15 16.05 СЗ 4-8
{9}
10 км ясно +16.5 +2.9 40 +16 +17 1018.5 1002.7 +18.8 0.3
18 16.05 СЗ 4-5
{8}
10 км 8/0
[Ci]
+12.3 +2.7 52 +11 +11 1020.3 1004.2
21 16.05 С 3-4
{6}
4000 м ясно +9.0 +1.7 60 +7 +7 1021.4 1005.1
00 17.05 С 2-3
{5}
4000 м ясно +6.5 +1.2 69 +4 +4 1022.4 1006.0
03 17.05 С 2-2
{3}
10 км ясно +7.7 +2.1 68 +6 +8 1023.6 1007.2 +5.0
06 17.05 С 3-5
{6}
10 км 3/0
[Ci sp]
+11.5 -0.2 44 +10 +18 1024.3 1008.0
09 17.05 С 3-6
{7}
10 км 6/0
[Ac cuf]
+13.2 -0.5 39 +12 +19 1023.0 1006.9
12 17.05 СЗ 3-6
{8}
10 км 3/0
[Ac cuf]
+15.3 -0.7 33 +15 +21 1021.0 1005.0
15 17.05 СЗ 3-7
{8}
10 км ясно +15.9 -1.2 31 +16 +17 1019.8 1003.8 +16.0
18 17.05 ЮЗ 2-3
{8}
10 км ясно +12.0 +0.4 45 +11 +11 1019.0 1002.8
21 17.05 ЮЗ 3-5
{5}
4000 м ясно +9.8 +1.3 55 +8 +8 1017.9 1001.7
00 18.05 З 3-5
{6}
4000 м ясно +9.0 +1.5 59 +7 +7 1016.7 1000.5
03 18.05 СЗ 4-5
{6}
10 км 3/0
[Ac cast]
+10.2 +3.0 61 +8 +9 1016.0 999.9 +7.8
06 18.05 СЗ 4-8
{10}
10 км 3/3 1000 м
[Cu hum]
+14.2 +3.4 48 +13 +18 1015.6 999.7
09 18.05 С 5-9
{11}
10 км 3/0
[Ci fib]
+15.2 +0.2 36 +14 +21 1015.3 999.4
12 18.05 СЗ 5-9
{11}
10 км 4/0
[Ci fib]
+16.8 -1.4 29 +16 +21 1014.2 998.4
15 18.05 СЗ 3-5
{10}
10 км 6/0
[Ac cast]
+15.9 -0.5 33 +16 +17 1013.8 997.9 +17.0
18 18.05 СЗ 1-2
{7}
10 км ясно +12.1 0.0 43 +12 +12 1014.0 997.9
21 18.05 СЗ 2-3
{4}
4000 м 6/0
[Ac trans]
+10.9 +0.2 48 +10 +10 1013.0 997.0
00 19.05 С 2-4
{7}
4000 м 6/0
[Ac trans]
+7.9 +3.4 73 +6 +6 1014.3 998.0
03 19.05 С 2-4
{5}
4000 м 3/0
[Ac cast]
+6.5 +0.7 66 +5 +6 1015.2 998.9 +5.1
06 19.05 СЗ 5-9
{10}
10 км 4/4 600 м
[Cu hum]
+9.5 -1.9 45 +7 +10 1015.2 999.0
09 19.05 С 5-10
{12}
10 км 8/8 600 м
[Cu med, cong]
+11.0 -1.4 42 +9 +10 1015.1 999.0
12 19.05 С 5-10
{11}
10 км 6/6 600 м
[Cu med, cong]
+11.9 -1.2 40 +10 +12 1016.3 1000.2
15 19.05 С 4-7
{10}
10 км 4/4 600 м
[Cu hum]
+11.1 -1.9 40 +9 +10 1016.8 1000.7 +12.1
18 19.05 СВ 2-4
{7}
10 км 8/8 600 м
[Sc]
+8.6 -0.7 52 +7 +7 1018.1 1001.9
21 19.05 ЮЗ 1-1
{4}
4000 м ясно +4.5 0.0 73 +3 +3 1019.0 1002.5
00 20.05 З 1-1
{3}
4000 м ясно +1.0 +0.2 94 -1 -1 1020.1 1003.3
03 20.05 СЗ 2-4
{5}
10 км 3/0
[Ac cast]
+6.5 +0.4 65 +5 +6 1020.6 1004.2 +0.8
06 20.05 СЗ 5-6
{7}
10 км ясно +11.5 +0.4 46 +9 +14 1020.4 1004.2
09 20.05 С 5-8
{9}
10 км 9/9 600 м
[Sc diur, vesp]
+12.2 -0.7 41 +10 +11 1020.4 1004.2
12 20.05 СЗ 4-6
{9}
10 км 8/8 600 м
[Cu med, cong]
+13.7 -1.7 34 +13 +14 1020.0 1003.9
15 20.05 СВ 3-4
{7}
10 км 8/8 600 м
[Cu med, cong]
+13.8 -0.7 37 +13 +13 1019.5 1003.4 +14.8
18 20.05 штиль 0
{4}
10 км 3/3 600 м
[Sc]
+9.1 +1.3 58 +9 +9 1020.0 1003.7
21 20.05 ЮЗ 1-2
{3}
4000 м 6/0
[Ac trans]
+5.2 +2.5 83 +4 +4 1020.4 1003.9
00 21.05 ЮЗ 1-2
{3}
4000 м ясно +4.3 +0.9 79 +3 +3 1021.0 1004.4
03 21.05 ЮЗ 2-3
{4}
10 км ясно +8.8 +2.3 64 +7 +9 1020.9 1004.6 +3.5
06 21.05 СЗ 3-4
{5}
10 км 3/0
[Ci fib]
+14.7 +0.6 38 +14 +22 1020.9 1004.9
09 21.05 СЗ 3-5
{6}
10 км 4/0
[Ci fib]
+17.1 -0.5 30 +17 +29 опасность
простуды
1020.2 1004.4
12 21.05 СЗ 4-6
{7}
10 км 6/0
[Ac cast]
+18.1 -1.2 27 +18 +22 1019.5 1003.7
15 21.05 З 2-5
{6}
10 км 9/0
[Ac trans]
+17.7 +0.2 31 +18 +19 1017.9 1002.1 +18.9

 

Местоположение метеостанции Дальнее Константиново (Нижегородская область, Россия): широта 55.80 долгота 44.08 высота над уровнем моря 133 м.

В архиве по умолчанию представлена погода в Дальнем Константиново за последнюю неделю. Архивные данные за месяц целиком и за предыдущие месяцы, начиная с января 2011 года, Вы можете получить, выбрав интересующий диапазон дат из раскрывающегося списка и нажав кнопку "Ввод!".


*Определитесь, кто Вы:
робот инопланетянин человек

Внимание! Время в таблицах - всемирное. Для получения местного времени необходимо прибавить поправку, которая равна 3 ч.

Смотрите также архив погоды в соседних городах и на ближайших метеорологических станциях:

Погода в Нижнем Новгороде аэропорт (Нижегородская область, Россия) (51 км)
Погода в Арзамасе (Нижегородская область, Россия) (51 км)
Погода в Нижнем Новгороде (Нижегородская область, Россия) (53 км)
Погода в Лысково (Нижегородская область, Россия) (64 км)
Погода в Павлово (Нижегородская область, Россия) (68 км)
Погода в Лукоянове (Нижегородская область, Россия) (90 км)
Погода в Балахне (Нижегородская область, Россия) (92 км)
Погода в Сергаче (Нижегородская область, Россия) (94 км)
Погода в Волжской ГМО (Нижегородская область, Россия) (106 км)
Погода в Семенове (Нижегородская область, Россия) (107 км)

Пояснения к столбцам:

Ветер - указаны скорость ветра в м/с - средняя за 10 мин, порывы в срок и между сроками (в фигурных скобках) и направление, откуда дует ветер: С - северный, СВ - северо-восточный, В - восточный, ЮВ - юго-восточный, Ю - южный, ЮЗ - юго-западный, З - западный, СЗ - северо-западный.
Видимость - горизонтальная дальность видимости в метрах или километрах. При видимости от 1 до 10 км при отсутствии осадков обычно наблюдается дымка, при ухудшении видимости до 1 км и менее - туман. В сухую погоду видимость может ухудшаться дымом, пылью или мглою.
Явления - указаны атмосферные явления, наблюдавшиеся в срок или в последний час перед сроком; фигурными скобками обозначены явления, наблюдавшиеся между сроками (за 1-3 часа до срока); квадратными скобками обозначены град или гололедные отложения с указанием их диаметра в мм.
Облачность - указаны через наклонную черту общая и нижняя облачность в баллах и высота нижней границы облаков в метрах; квадратными скобками обозначены формы облаков: Ci - перистые, Cs - перисто-слоистые, Cc - перисто-кучевые, Ac - высококучевые, As - высокослоистые, Sc - слоисто-кучевые, Ns - слоисто-дождевые, Cu - кучевые, Cb - кучево-дождевые. Подробнее классификацию облаков см. в Атласе облаков (PDF).
T - Температура воздуха - температура, измеренная на высоте 2 м над землей.
Td - Температура точки росы - температура, при понижении до которой содержащийся в воздухе водяной пар достигнет насыщения.
f - Относительная влажность воздуха - влажноcть воздуха, измеренная на высоте 2 м над землей.
Te - Эффективная температура - температура, которую ощущает одетый по сезону человек в тени. Характеристика душности погоды. При расчете учитывается влияние влажности воздуха и скорости ветра на теплоощущения человека.
Tes - Эффективная температура на солнце - температура, которую ощущает человек, с поправкой на солнечный нагрев. Характеристика знойности погоды. Зависит от высоты солнца над горизонтом, облачности и скорости ветра. Ночью, в пасмурную погоду, а также при ветре 12 м/с и более поправка равна нулю.
P - Атмосферное давление - приведенное к уровню моря атмосферное давление.
Po - Атмосферное давление - измеренное на уровне метеостанции атмосферное давление.
Tmin - Минимальная температура - минимум температуры воздуха на высоте 2 м над землей.
Tmax - Максимальная температура - максимум температуры воздуха на высоте 2 м над землей.
R - Количество осадков - Количество выпавших осадков за период времени, мм. При наведении курсора мыши на число - период времени, за который выпало указанное количество осадков.
R24 - Количество осадков - Количество выпавших осадков за 24 часа, мм.
S - Снежный покров - Высота снежного покрова, см. При наведении курсора мыши на число - состояние снежного покрова и степень покрытия местности в баллах.